Dades meteomassalio
Diari Summary for Juliol 11, 2017 Units:  Metric    English   Both
« Previous Day
Next Day »
Diari Semanal Mensual Anual Personalitzat
  Maxima: Minima: Mijana:
Temperatura: 34.0 °C 16.7 °C 25.5 °C
Rosada: 20.4 °C 13.6 °C 16 °C
Humitat: 87 % 30 % 59 %
Velocitat del vent: 18.5 km/h 0.0 km/h 3.8 km/h
Racha vent: 18.5 km/h - -
Vent:- - ESE
Pressio: 1015.8 hPa 1012.4 hPa -
Pluja: 0.0 mm    
Historical Graphs
 
 
Tabular Data for Juliol 11, 2017
Time Temperature Dew Point Pressure Wind Wind Speed Wind Gust Humidity Rainfall Rate (Hourly) solar Conditions
00:03 23.6 °C 16.8 °C 1013.8 hPa Calm     66 % 0.0 mm 0.0 W/m2 CLR
00:08 23.4 °C 16.7 °C 1013.8 hPa WNW 11.1 km/h 11.1 km/h 66 % 0.0 mm 0.0 W/m2 CLR
00:13 23.4 °C 16.7 °C 1013.8 hPa West 5.6 km/h 5.6 km/h 66 % 0.0 mm 0.0 W/m2 CLR
00:18 23.3 °C 16.6 °C 1014.1 hPa Calm     66 % 0.0 mm 0.0 W/m2 CLR
00:23 23.2 °C 16.5 °C 1013.8 hPa Calm     66 % 0.0 mm 0.0 W/m2 CLR
00:28 23.1 °C 16.3 °C 1014.1 hPa Calm     66 % 0.0 mm 0.0 W/m2 CLR
00:33 22.9 °C 16.5 °C 1014.1 hPa Calm     67 % 0.0 mm 0.0 W/m2 CLR
00:38 22.8 °C 16.4 °C 1014.1 hPa Calm     67 % 0.0 mm 0.0 W/m2 CLR
00:43 22.7 °C 16.4 °C 1014.1 hPa Calm     68 % 0.0 mm 0.0 W/m2 CLR
00:48 22.5 °C 16.3 °C 1014.1 hPa Calm     68 % 0.0 mm 0.0 W/m2 CLR
00:53 22.4 °C 16.2 °C 1014.1 hPa Calm     68 % 0.0 mm 0.0 W/m2 CLR
00:58 22.3 °C 16.1 °C 1014.1 hPa Calm     68 % 0.0 mm 0.0 W/m2 CLR
01:03 22.2 °C 16.1 °C 1014.1 hPa Calm     68 % 0.0 mm 0.0 W/m2 CLR
01:08 22.1 °C 15.9 °C 1014.1 hPa Calm     68 % 0.0 mm 0.0 W/m2 CLR
01:13 22.1 °C 15.7 °C 1014.4 hPa Calm     67 % 0.0 mm 0.0 W/m2 CLR
01:18 22.0 °C 15.6 °C 1014.1 hPa Calm     67 % 0.0 mm 0.0 W/m2 CLR
01:23 21.9 °C 15.5 °C 1014.1 hPa Calm     67 % 0.0 mm 0.0 W/m2 CLR
01:28 21.8 °C 15.4 °C 1014.1 hPa Calm     67 % 0.0 mm 0.0 W/m2 CLR
01:33 21.7 °C 15.3 °C 1014.1 hPa Calm     67 % 0.0 mm 0.0 W/m2 CLR
01:38 21.6 °C 15.2 °C 1014.1 hPa Calm     67 % 0.0 mm 0.0 W/m2 CLR
01:43 21.6 °C 15.2 °C 1014.4 hPa Calm     67 % 0.0 mm 0.0 W/m2 CLR
01:48 21.5 °C 15.3 °C 1014.4 hPa Calm     68 % 0.0 mm 0.0 W/m2 CLR
01:53 21.3 °C 15.4 °C 1014.4 hPa Calm     69 % 0.0 mm 0.0 W/m2 CLR
01:58 21.2 °C 15.3 °C 1014.4 hPa Calm     69 % 0.0 mm 0.0 W/m2 CLR
02:03 21.1 °C 15.4 °C 1014.4 hPa Calm     70 % 0.0 mm 0.0 W/m2 CLR
02:08 21.0 °C 15.6 °C 1014.4 hPa Calm     71 % 0.0 mm 0.0 W/m2 CLR
02:13 20.8 °C 15.6 °C 1014.4 hPa Calm     72 % 0.0 mm 0.0 W/m2 CLR
02:18 20.7 °C 15.7 °C 1014.4 hPa Calm     73 % 0.0 mm 0.0 W/m2 CLR
02:23 20.5 °C 15.5 °C 1014.4 hPa Calm     73 % 0.0 mm 0.0 W/m2 CLR
02:28 20.4 °C 15.6 °C 1014.4 hPa Calm     74 % 0.0 mm 0.0 W/m2 CLR
02:33 20.3 °C 15.6 °C 1014.4 hPa Calm     74 % 0.0 mm 0.0 W/m2 CLR
02:38 20.3 °C 15.6 °C 1014.4 hPa Calm     74 % 0.0 mm 0.0 W/m2 CLR
02:43 20.3 °C 15.6 °C 1014.4 hPa Calm     74 % 0.0 mm 0.0 W/m2 CLR
02:48 20.3 °C 15.5 °C 1014.4 hPa Calm     74 % 0.0 mm 0.0 W/m2 CLR
02:53 20.2 °C 15.4 °C 1014.4 hPa Calm     74 % 0.0 mm 0.0 W/m2 CLR
02:58 20.2 °C 15.4 °C 1014.4 hPa Calm     74 % 0.0 mm 0.0 W/m2 CLR
03:03 20.2 °C 15.4 °C 1014.4 hPa Calm     74 % 0.0 mm 0.0 W/m2 CLR
03:08 20.1 °C 15.3 °C 1014.4 hPa Calm     74 % 0.0 mm 0.0 W/m2 CLR
03:13 20.0 °C 15.2 °C 1014.4 hPa Calm     74 % 0.0 mm 0.0 W/m2 CLR
03:18 19.9 °C 15.3 °C 1014.4 hPa Calm     75 % 0.0 mm 0.0 W/m2 CLR
03:23 19.8 °C 15.2 °C 1014.4 hPa Calm     75 % 0.0 mm 0.0 W/m2 CLR
03:28 19.8 °C 15.2 °C 1014.4 hPa Calm     75 % 0.0 mm 0.0 W/m2 CLR
03:33 19.7 °C 15.1 °C 1014.4 hPa Calm     75 % 0.0 mm 0.0 W/m2 CLR
03:38 19.6 °C 15.3 °C 1014.4 hPa Calm     76 % 0.0 mm 0.0 W/m2 CLR
03:44 19.6 °C 15.4 °C 1014.4 hPa Calm     77 % 0.0 mm 0.0 W/m2 CLR
03:49 19.5 °C 15.3 °C 1014.4 hPa Calm     77 % 0.0 mm 0.0 W/m2 CLR
03:54 19.4 °C 15.5 °C 1014.8 hPa Calm     78 % 0.0 mm 0.0 W/m2 CLR
03:59 19.3 °C 15.4 °C 1014.8 hPa Calm     78 % 0.0 mm 0.0 W/m2 CLR
04:04 19.2 °C 15.2 °C 1014.8 hPa Calm     78 % 0.0 mm 0.0 W/m2 CLR
04:09 19.1 °C 15.3 °C 1014.8 hPa Calm     79 % 0.0 mm 0.0 W/m2 CLR
04:14 18.9 °C 15.4 °C 1014.8 hPa Calm     80 % 0.0 mm 0.0 W/m2 CLR
04:19 18.8 °C 15.3 °C 1014.8 hPa Calm     80 % 0.0 mm 0.0 W/m2 CLR
04:24 18.7 °C 15.2 °C 1014.8 hPa Calm     80 % 0.0 mm 0.0 W/m2 CLR
04:29 18.6 °C 15.1 °C 1014.8 hPa Calm     80 % 0.0 mm 0.0 W/m2 CLR
04:34 18.6 °C 15.2 °C 1014.8 hPa Calm     81 % 0.0 mm 0.0 W/m2 CLR
04:39 18.6 °C 15.4 °C 1014.8 hPa Calm     82 % 0.0 mm 0.0 W/m2 CLR
04:44 18.5 °C 15.4 °C 1014.8 hPa Calm     82 % 0.0 mm 0.0 W/m2 CLR
04:49 18.4 °C 15.3 °C 1014.8 hPa Calm     82 % 0.0 mm 0.0 W/m2 CLR
04:54 18.3 °C 15.2 °C 1014.8 hPa Calm     82 % 0.0 mm 0.0 W/m2 CLR
04:59 18.2 °C 15.1 °C 1014.8 hPa Calm     82 % 0.0 mm 0.0 W/m2 CLR
05:04 18.1 °C 15.2 °C 1014.8 hPa Calm     83 % 0.0 mm 0.0 W/m2 CLR
05:09 18.1 °C 15.1 °C 1014.8 hPa Calm     83 % 0.0 mm 0.0 W/m2 CLR
05:14 18.0 °C 15.1 °C 1014.8 hPa Calm     83 % 0.0 mm 0.0 W/m2 CLR
05:19 17.9 °C 14.9 °C 1014.8 hPa Calm     83 % 0.0 mm 0.0 W/m2 CLR
05:24 17.8 °C 14.9 °C 1014.8 hPa Calm     83 % 0.0 mm 0.0 W/m2 CLR
05:29 17.7 °C 15.0 °C 1014.8 hPa Calm     84 % 0.0 mm 0.0 W/m2 CLR
05:34 17.6 °C 14.9 °C 1014.8 hPa Calm     84 % 0.0 mm 0.0 W/m2 CLR
05:39 17.6 °C 14.8 °C 1014.8 hPa Calm     84 % 0.0 mm 0.0 W/m2 CLR
05:44 17.5 °C 14.8 °C 1014.8 hPa Calm     84 % 0.0 mm 0.0 W/m2 CLR
05:49 17.5 °C 14.8 °C 1014.8 hPa Calm     84 % 0.0 mm 0.0 W/m2 CLR
05:54 17.4 °C 14.7 °C 1014.8 hPa Calm     84 % 0.0 mm 0.0 W/m2 CLR
05:59 17.4 °C 14.9 °C 1014.8 hPa Calm     85 % 0.0 mm 0.0 W/m2 CLR
06:04 17.4 °C 14.7 °C 1014.8 hPa Calm     84 % 0.0 mm 0.0 W/m2 CLR
06:09 17.3 °C 14.8 °C 1014.8 hPa Calm     85 % 0.0 mm 0.0 W/m2 CLR
06:14 17.3 °C 14.7 °C 1014.8 hPa Calm     85 % 0.0 mm 0.0 W/m2 CLR
06:19 17.3 °C 14.7 °C 1014.8 hPa Calm     85 % 0.0 mm 0.0 W/m2 CLR
06:24 17.2 °C 14.7 °C 1014.8 hPa Calm     85 % 0.0 mm 0.0 W/m2 CLR
06:29 17.2 °C 14.6 °C 1014.8 hPa Calm     85 % 0.0 mm 0.0 W/m2 OVC
06:34 17.1 °C 14.7 °C 1014.8 hPa Calm     86 % 0.0 mm 0.0 W/m2 OVC
06:39 16.9 °C 14.6 °C 1014.8 hPa Calm     86 % 0.0 mm 0.0 W/m2 OVC
06:44 16.8 °C 14.7 °C 1014.8 hPa Calm     87 % 0.0 mm 7.0 W/m2 BKN
06:49 16.8 °C 14.6 °C 1014.8 hPa Calm     87 % 0.0 mm 11.0 W/m2 BKN
06:54 16.8 °C 14.6 °C 1015.1 hPa Calm     87 % 0.0 mm 14.0 W/m2 BKN
06:59 16.8 °C 14.6 °C 1015.1 hPa Calm     87 % 0.0 mm 16.0 W/m2 BKN
07:04 16.8 °C 14.6 °C 1015.1 hPa Calm     87 % 0.0 mm 21.0 W/m2 BKN
07:09 16.8 °C 14.6 °C 1015.1 hPa Calm     87 % 0.0 mm 26.0 W/m2 BKN
07:14 16.7 °C 14.6 °C 1015.1 hPa Calm     87 % 0.0 mm 37.0 W/m2 BKN
07:19 16.7 °C 14.6 °C 1015.1 hPa Calm     87 % 0.0 mm 53.0 W/m2 SCT
07:24 16.7 °C 14.6 °C 1015.1 hPa Calm     87 % 0.0 mm 65.0 W/m2 SCT
07:29 16.9 °C 14.7 °C 1015.1 hPa WSW 1.6 km/h 1.6 km/h 87 % 0.0 mm 74.0 W/m2 FEW
07:34 17.1 °C 14.7 °C 1015.1 hPa Calm     86 % 0.0 mm 88.0 W/m2 FEW
07:39 17.2 °C 14.8 °C 1015.1 hPa Calm     86 % 0.0 mm 98.0 W/m2 FEW
07:44 17.4 °C 14.8 °C 1015.1 hPa Calm     85 % 0.0 mm 105.0 W/m2 CLR
07:49 17.6 °C 14.8 °C 1015.5 hPa Calm     84 % 0.0 mm 102.0 W/m2 CLR
07:54 17.8 °C 15.1 °C 1015.5 hPa Calm     84 % 0.0 mm 127.0 W/m2 CLR
07:59 18.1 °C 15.2 °C 1015.5 hPa Calm     83 % 0.0 mm 158.0 W/m2 CLR
08:04 18.5 °C 15.6 °C 1015.5 hPa Calm     83 % 0.0 mm 151.0 W/m2 CLR
08:09 18.9 °C 15.6 °C 1015.5 hPa Calm     81 % 0.0 mm 183.0 W/m2 CLR
08:14 19.1 °C 15.6 °C 1015.8 hPa Calm     80 % 0.0 mm 181.0 W/m2 CLR
08:19 19.3 °C 15.6 °C 1015.8 hPa Calm     79 % 0.0 mm 100.0 W/m2 CLR
08:24 19.3 °C 15.8 °C 1015.8 hPa Calm     80 % 0.0 mm 90.0 W/m2 CLR
08:29 19.2 °C 15.8 °C 1015.8 hPa Calm     81 % 0.0 mm 83.0 W/m2 CLR
08:34 19.0 °C 15.4 °C 1015.8 hPa Calm     80 % 0.0 mm 74.0 W/m2 FEW
08:39 19.0 °C 15.7 °C 1015.8 hPa Calm     81 % 0.0 mm 70.0 W/m2 FEW
08:44 19.0 °C 15.7 °C 1015.8 hPa Calm     81 % 0.0 mm 209.0 W/m2 FEW
08:49 19.2 °C 15.7 °C 1015.8 hPa Calm     80 % 0.0 mm 162.0 W/m2 CLR
08:54 19.6 °C 15.9 °C 1015.8 hPa Calm     79 % 0.0 mm 304.0 W/m2 CLR
08:59 20.1 °C 15.9 °C 1015.8 hPa Calm     77 % 0.0 mm 334.0 W/m2 CLR
09:04 20.6 °C 15.8 °C 1015.8 hPa Calm     74 % 0.0 mm 350.0 W/m2 CLR
09:09 20.7 °C 15.2 °C 1015.8 hPa Calm     71 % 0.0 mm 355.0 W/m2 CLR
09:15 20.8 °C 15.1 °C 1015.8 hPa Calm     70 % 0.0 mm 376.0 W/m2 CLR
09:20 21.0 °C 15.1 °C 1015.8 hPa Calm     69 % 0.0 mm 396.0 W/m2 CLR
09:25 21.2 °C 15.0 °C 1015.8 hPa NNE 1.9 km/h   68 % 0.0 mm 406.0 W/m2 CLR
09:30 21.6 °C 15.2 °C 1015.8 hPa Calm     67 % 0.0 mm 417.0 W/m2 CLR
09:35 21.8 °C 15.7 °C 1015.8 hPa Calm     68 % 0.0 mm 434.0 W/m2 CLR
09:40 22.2 °C 15.3 °C 1015.8 hPa Calm     65 % 0.0 mm 452.0 W/m2 CLR
09:45 22.4 °C 15.0 °C 1015.8 hPa NW 9.7 km/h 9.7 km/h 63 % 0.0 mm 466.0 W/m2 CLR
09:50 22.3 °C 14.7 °C 1015.8 hPa NW 5.6 km/h 5.6 km/h 62 % 0.0 mm 482.0 W/m2 CLR
09:55 22.2 °C 14.8 °C 1015.8 hPa WNW 5.6 km/h   63 % 0.0 mm 494.0 W/m2 CLR
10:00 22.3 °C 15.1 °C 1015.8 hPa West 7.4 km/h 7.4 km/h 64 % 0.0 mm 508.0 W/m2 CLR
10:05 22.3 °C 14.9 °C 1015.8 hPa WSW 9.3 km/h 9.3 km/h 63 % 0.0 mm 520.0 W/m2 CLR
10:10 22.4 °C 15.1 °C 1015.8 hPa Calm     63 % 0.0 mm 536.0 W/m2 CLR
10:15 22.8 °C 15.1 °C 1015.8 hPa Calm     62 % 0.0 mm 548.0 W/m2 CLR
10:20 23.2 °C 15.2 °C 1015.8 hPa Calm     61 % 0.0 mm 564.0 W/m2 CLR
10:25 23.2 °C 15.3 °C 1015.5 hPa Calm     61 % 0.0 mm 575.0 W/m2 CLR
10:30 23.5 °C 15.6 °C 1015.5 hPa Calm     61 % 0.0 mm 598.0 W/m2 CLR
10:35 23.7 °C 15.2 °C 1015.5 hPa South 5.6 km/h 5.6 km/h 59 % 0.0 mm 612.0 W/m2 CLR
10:40 23.8 °C 15.3 °C 1015.8 hPa Calm     59 % 0.0 mm 615.0 W/m2 CLR
10:45 24.0 °C 15.8 °C 1015.5 hPa Calm     60 % 0.0 mm 635.0 W/m2 CLR
10:50 24.3 °C 15.5 °C 1015.5 hPa North 5.6 km/h 5.6 km/h 58 % 0.0 mm 652.0 W/m2 CLR
10:55 24.4 °C 15.3 °C 1015.5 hPa SW 1.6 km/h   57 % 0.0 mm 666.0 W/m2 CLR
11:00 24.4 °C 15.3 °C 1015.5 hPa SSW 5.6 km/h 5.6 km/h 57 % 0.0 mm 677.0 W/m2 CLR
11:05 24.6 °C 15.2 °C 1015.8 hPa Calm     56 % 0.0 mm 691.0 W/m2 CLR
11:10 24.7 °C 15.6 °C 1015.5 hPa North 8.0 km/h 8.0 km/h 57 % 0.0 mm 701.0 W/m2 CLR
11:15 24.8 °C 15.4 °C 1015.5 hPa Calm     56 % 0.0 mm 714.0 W/m2 CLR
11:20 24.9 °C 15.6 °C 1015.5 hPa North 1.9 km/h 1.9 km/h 56 % 0.0 mm 726.0 W/m2 CLR
11:25 25.2 °C 15.8 °C 1015.5 hPa NNE 5.6 km/h 5.6 km/h 56 % 0.0 mm 738.0 W/m2 CLR
11:30 25.4 °C 15.7 °C 1015.5 hPa NNE 11.1 km/h 11.1 km/h 55 % 0.0 mm 751.0 W/m2 CLR
11:35 25.5 °C 15.8 °C 1015.5 hPa ENE 9.3 km/h 9.3 km/h 55 % 0.0 mm 763.0 W/m2 CLR
11:40 25.6 °C 15.6 °C 1015.5 hPa Calm     54 % 0.0 mm 775.0 W/m2 CLR
11:45 25.7 °C 15.7 °C 1015.5 hPa East 9.7 km/h 9.7 km/h 54 % 0.0 mm 789.0 W/m2 CLR
11:50 25.7 °C 15.7 °C 1015.5 hPa ENE 11.1 km/h 11.1 km/h 54 % 0.0 mm 798.0 W/m2 CLR
11:55 25.8 °C 15.8 °C 1015.5 hPa ENE 7.4 km/h 7.4 km/h 54 % 0.0 mm 807.0 W/m2 CLR
12:00 26.0 °C 15.7 °C 1015.5 hPa ESE 11.1 km/h 11.1 km/h 53 % 0.0 mm 814.0 W/m2 CLR
12:05 26.1 °C 15.7 °C 1015.5 hPa ESE 5.6 km/h 5.6 km/h 53 % 0.0 mm 826.0 W/m2 CLR
12:10 26.3 °C 15.9 °C 1015.5 hPa East 5.6 km/h   53 % 0.0 mm 833.0 W/m2 CLR
12:15 26.6 °C 16.2 °C 1015.5 hPa Calm     53 % 0.0 mm 840.0 W/m2 CLR
12:20 26.9 °C 16.3 °C 1015.5 hPa ENE 1.9 km/h 1.9 km/h 52 % 0.0 mm 847.0 W/m2 CLR
12:21 27.0 °C 16.3 °C 1015.5 hPa ENE 3.7 km/h 3.7 km/h 52 % 0.0 mm 849.0 W/m2 CLR
12:26 27.4 °C 15.7 °C 1015.5 hPa Calm     49 % 0.0 mm 858.0 W/m2 CLR
12:31 27.4 °C 16.1 °C 1015.1 hPa ENE 1.9 km/h   50 % 0.0 mm 865.0 W/m2 CLR
12:36 27.6 °C 15.9 °C 1015.1 hPa Calm     49 % 0.0 mm 874.0 W/m2 CLR
12:41 27.7 °C 16.1 °C 1015.1 hPa NNE 1.9 km/h 1.9 km/h 49 % 0.0 mm 882.0 W/m2 CLR
12:46 27.9 °C 16.2 °C 1015.1 hPa NE 1.9 km/h 1.9 km/h 49 % 0.0 mm 888.0 W/m2 CLR
12:51 28.0 °C 16.3 °C 1015.1 hPa East 18.5 km/h 18.5 km/h 49 % 0.0 mm 895.0 W/m2 CLR
12:56 27.7 °C 16.3 °C 1015.1 hPa NE 13.0 km/h 13.0 km/h 50 % 0.0 mm 902.0 W/m2 CLR
13:01 27.8 °C 16.7 °C 1015.1 hPa ENE 9.3 km/h 9.3 km/h 51 % 0.0 mm 872.0 W/m2 CLR
13:06 27.7 °C 16.7 °C 1015.1 hPa NE 11.3 km/h 11.3 km/h 51 % 0.0 mm 914.0 W/m2 CLR
13:11 27.8 °C 16.4 °C 1015.1 hPa NNW 9.3 km/h 9.3 km/h 50 % 0.0 mm 914.0 W/m2 CLR
13:16 28.0 °C 16.9 °C 1015.1 hPa NE 9.3 km/h 9.3 km/h 51 % 0.0 mm 921.0 W/m2 CLR
13:21 28.2 °C 16.4 °C 1015.1 hPa ENE 11.3 km/h 11.3 km/h 49 % 0.0 mm 928.0 W/m2 CLR
13:26 27.8 °C 16.4 °C 1014.8 hPa East 1.6 km/h   50 % 0.0 mm 935.0 W/m2 CLR
13:31 28.1 °C 16.3 °C 1014.8 hPa North 5.6 km/h 5.6 km/h 49 % 0.0 mm 953.0 W/m2 CLR
13:36 28.2 °C 16.4 °C 1014.8 hPa NNE 4.8 km/h 4.8 km/h 49 % 0.0 mm 893.0 W/m2 CLR
13:41 28.6 °C 16.8 °C 1014.8 hPa NNE 11.1 km/h 11.1 km/h 49 % 0.0 mm 904.0 W/m2 CLR
13:46 28.9 °C 16.8 °C 1014.8 hPa NE 9.3 km/h 9.3 km/h 48 % 0.0 mm 863.0 W/m2 CLR
13:51 29.1 °C 16.6 °C 1014.8 hPa Calm     47 % 0.0 mm 984.0 W/m2 CLR
13:56 29.2 °C 16.7 °C 1014.8 hPa ENE 11.3 km/h 11.3 km/h 47 % 0.0 mm 986.0 W/m2 CLR
14:01 29.4 °C 16.9 °C 1014.4 hPa NNE 1.9 km/h 1.9 km/h 47 % 0.0 mm 993.0 W/m2 CLR
14:06 29.7 °C 16.9 °C 1014.4 hPa NE 11.3 km/h 11.3 km/h 46 % 0.0 mm 983.0 W/m2 CLR
14:11 29.9 °C 16.7 °C 1014.4 hPa Calm     45 % 0.0 mm 958.0 W/m2 CLR
14:16 29.8 °C 16.9 °C 1014.4 hPa NE 9.7 km/h 9.7 km/h 46 % 0.0 mm 780.0 W/m2 CLR
14:21 29.9 °C 16.7 °C 1014.4 hPa ENE 14.8 km/h 14.8 km/h 45 % 0.0 mm 376.0 W/m2 CLR
14:26 29.9 °C 17.0 °C 1014.1 hPa Calm     46 % 0.0 mm 853.0 W/m2 CLR
14:31 29.9 °C 17.1 °C 1014.1 hPa ENE 9.7 km/h 9.7 km/h 46 % 0.0 mm 998.0 W/m2 CLR
14:36 30.2 °C 17.3 °C 1014.1 hPa NE 11.1 km/h 11.1 km/h 46 % 0.0 mm 991.0 W/m2 CLR
14:41 30.7 °C 17.0 °C 1014.1 hPa NE 5.6 km/h 5.6 km/h 44 % 0.0 mm 940.0 W/m2 CLR
14:46 30.8 °C 17.1 °C 1014.1 hPa WNW 9.3 km/h 9.3 km/h 44 % 0.0 mm 946.0 W/m2 CLR
14:51 30.9 °C 17.2 °C 1014.1 hPa NE 5.6 km/h   44 % 0.0 mm 856.0 W/m2 CLR
14:56 31.0 °C 17.3 °C 1013.8 hPa NE 3.2 km/h 3.2 km/h 44 % 0.0 mm 984.0 W/m2 CLR
15:01 31.2 °C 17.1 °C 1013.8 hPa NNE 7.4 km/h 7.4 km/h 43 % 0.0 mm 805.0 W/m2 CLR
15:06 31.5 °C 16.7 °C 1013.8 hPa NE 11.1 km/h 11.1 km/h 41 % 0.0 mm 911.0 W/m2 CLR
15:11 31.8 °C 16.5 °C 1013.8 hPa NE 11.1 km/h 11.1 km/h 40 % 0.0 mm 926.0 W/m2 CLR
15:16 32.0 °C 15.9 °C 1013.8 hPa NE 13.0 km/h 13.0 km/h 38 % 0.0 mm 911.0 W/m2 CLR
15:21 32.1 °C 15.6 °C 1013.8 hPa NNE 11.1 km/h 11.1 km/h 37 % 0.0 mm 882.0 W/m2 CLR
15:26 32.2 °C 14.8 °C 1013.8 hPa NE 11.1 km/h 11.1 km/h 35 % 0.0 mm 886.0 W/m2 CLR
15:31 32.1 °C 14.7 °C 1013.8 hPa ENE 7.4 km/h 7.4 km/h 35 % 0.0 mm 877.0 W/m2 CLR
15:36 32.1 °C 15.2 °C 1013.8 hPa NE 11.3 km/h 11.3 km/h 36 % 0.0 mm 867.0 W/m2 CLR
15:41 31.9 °C 15.0 °C 1013.4 hPa NE 13.0 km/h 13.0 km/h 36 % 0.0 mm 860.0 W/m2 CLR
15:46 31.9 °C 14.6 °C 1013.4 hPa ENE 14.5 km/h 14.5 km/h 35 % 0.0 mm 854.0 W/m2 CLR
15:51 32.1 °C 14.3 °C 1013.4 hPa ENE 6.4 km/h 6.6 km/h 34 % 0.0 mm 844.0 W/m2 CLR
15:53 32.3 °C 14.9 °C 1013.4 hPa ENE 7.4 km/h 7.4 km/h 35 % 0.0 mm 840.0 W/m2 CLR
15:58 32.6 °C 14.7 °C 1013.4 hPa ENE 11.1 km/h 11.1 km/h 34 % 0.0 mm 830.0 W/m2 CLR
16:03 32.6 °C 14.7 °C 1013.4 hPa NNE 9.3 km/h 9.3 km/h 34 % 0.0 mm 823.0 W/m2 CLR
16:08 32.6 °C 14.7 °C 1013.4 hPa NE 6.4 km/h 6.4 km/h 34 % 0.0 mm 814.0 W/m2 CLR
16:13 32.8 °C 15.3 °C 1013.4 hPa NE 9.3 km/h 9.3 km/h 35 % 0.0 mm 807.0 W/m2 CLR
16:18 33.1 °C 14.7 °C 1013.1 hPa ENE 16.7 km/h 16.7 km/h 33 % 0.0 mm 796.0 W/m2 CLR
16:23 33.0 °C 14.6 °C 1013.1 hPa North 11.1 km/h 11.1 km/h 33 % 0.0 mm 788.0 W/m2 CLR
16:28 32.8 °C 14.4 °C 1013.1 hPa NE 16.7 km/h 16.7 km/h 33 % 0.0 mm 777.0 W/m2 CLR
16:33 32.8 °C 14.4 °C 1013.1 hPa NE 11.1 km/h 11.1 km/h 33 % 0.0 mm 766.0 W/m2 CLR
16:38 32.9 °C 14.5 °C 1013.1 hPa ENE 11.3 km/h 11.3 km/h 33 % 0.0 mm 758.0 W/m2 CLR
16:43 32.9 °C 14.6 °C 1013.1 hPa NNE 9.3 km/h 9.3 km/h 33 % 0.0 mm 745.0 W/m2 CLR
16:48 33.1 °C 14.7 °C 1013.1 hPa ENE 16.7 km/h 16.7 km/h 33 % 0.0 mm 733.0 W/m2 CLR
16:53 33.1 °C 14.7 °C 1013.1 hPa ENE 11.1 km/h 11.1 km/h 33 % 0.0 mm 721.0 W/m2 CLR
16:58 33.2 °C 14.3 °C 1013.1 hPa North 14.8 km/h 14.8 km/h 32 % 0.0 mm 712.0 W/m2 CLR
17:03 33.2 °C 14.3 °C 1013.1 hPa North 14.8 km/h 14.8 km/h 32 % 0.0 mm 698.0 W/m2 CLR
17:08 33.2 °C 14.3 °C 1013.1 hPa North 8.0 km/h 8.0 km/h 32 % 0.0 mm 687.0 W/m2 CLR
17:13 33.3 °C 14.8 °C 1012.8 hPa NNE 5.6 km/h 5.6 km/h 33 % 0.0 mm 675.0 W/m2 CLR
17:18 33.4 °C 14.0 °C 1012.8 hPa NW 14.8 km/h 14.8 km/h 31 % 0.0 mm 666.0 W/m2 CLR
17:23 33.7 °C 14.2 °C 1012.8 hPa North 13.0 km/h 13.0 km/h 31 % 0.0 mm 652.0 W/m2 CLR
17:28 33.5 °C 14.1 °C 1012.8 hPa North 11.1 km/h 11.1 km/h 31 % 0.0 mm 636.0 W/m2 CLR
17:33 33.6 °C 13.6 °C 1012.8 hPa North 14.8 km/h 14.8 km/h 30 % 0.0 mm 626.0 W/m2 CLR
17:38 33.6 °C 14.1 °C 1012.8 hPa North 13.0 km/h 13.0 km/h 31 % 0.0 mm 613.0 W/m2 CLR
17:44 33.5 °C 14.1 °C 1012.8 hPa NW 14.8 km/h 14.8 km/h 31 % 0.0 mm 599.0 W/m2 CLR
17:49 33.4 °C 13.9 °C 1012.8 hPa NNW 5.6 km/h   31 % 0.0 mm 580.0 W/m2 CLR
17:54 33.7 °C 14.2 °C 1012.8 hPa NNE 13.0 km/h 13.0 km/h 31 % 0.0 mm 570.0 W/m2 CLR
17:59 33.6 °C 14.2 °C 1012.8 hPa ENE 16.7 km/h 16.7 km/h 31 % 0.0 mm 552.0 W/m2 CLR
18:03 33.5 °C 15.0 °C 1012.8 hPa ENE 8.0 km/h 8.0 km/h 33 % 0.0 mm 540.0 W/m2 CLR
18:08 33.5 °C 14.6 °C 1012.8 hPa ENE 5.6 km/h 5.6 km/h 32 % 0.0 mm 529.0 W/m2 CLR
18:13 33.4 °C 14.4 °C 1012.8 hPa NE 9.7 km/h 9.7 km/h 32 % 0.0 mm 510.0 W/m2 CLR
18:18 33.4 °C 13.9 °C 1012.4 hPa WNW 5.6 km/h 5.6 km/h 31 % 0.0 mm 496.0 W/m2 CLR
18:24 33.5 °C 14.6 °C 1012.4 hPa NNE 5.6 km/h 5.6 km/h 32 % 0.0 mm 483.0 W/m2 CLR
18:29 33.6 °C 14.7 °C 1012.4 hPa NNE 9.3 km/h 9.3 km/h 32 % 0.0 mm 469.0 W/m2 CLR
18:34 33.7 °C 14.2 °C 1012.4 hPa Calm     31 % 0.0 mm 450.0 W/m2 CLR
18:39 33.7 °C 14.2 °C 1012.4 hPa Calm     31 % 0.0 mm 436.0 W/m2 CLR
18:44 33.7 °C 13.7 °C 1012.4 hPa NNE 11.1 km/h 11.1 km/h 30 % 0.0 mm 422.0 W/m2 CLR
18:49 33.8 °C 14.3 °C 1012.4 hPa NNE 5.6 km/h   31 % 0.0 mm 408.0 W/m2 CLR
18:54 33.8 °C 13.8 °C 1012.4 hPa NNE 5.6 km/h 5.6 km/h 30 % 0.0 mm 390.0 W/m2 CLR
18:59 33.9 °C 14.4 °C 1012.4 hPa NNE 1.9 km/h   31 % 0.0 mm 376.0 W/m2 CLR
19:04 34.0 °C 14.5 °C 1012.4 hPa NNE 3.7 km/h 3.7 km/h 31 % 0.0 mm 359.0 W/m2 CLR
19:09 33.8 °C 14.3 °C 1012.4 hPa NE 3.7 km/h 3.7 km/h 31 % 0.0 mm 345.0 W/m2 CLR
19:14 33.6 °C 14.7 °C 1012.4 hPa ENE 9.7 km/h 9.7 km/h 32 % 0.0 mm 330.0 W/m2 CLR
19:19 33.5 °C 14.1 °C 1012.4 hPa NE 1.9 km/h 1.9 km/h 31 % 0.0 mm 311.0 W/m2 CLR
19:24 33.5 °C 14.6 °C 1012.4 hPa ENE 3.7 km/h 3.7 km/h 32 % 0.0 mm 297.0 W/m2 CLR
19:29 33.4 °C 14.4 °C 1012.4 hPa ENE 9.3 km/h 9.3 km/h 32 % 0.0 mm 283.0 W/m2 CLR
19:34 33.3 °C 14.4 °C 1012.4 hPa NE 9.3 km/h 9.3 km/h 32 % 0.0 mm 269.0 W/m2 CLR
19:39 33.4 °C 14.4 °C 1012.4 hPa Calm     32 % 0.0 mm 251.0 W/m2 CLR
19:44 33.4 °C 14.0 °C 1012.4 hPa NNE 7.4 km/h 7.4 km/h 31 % 0.0 mm 239.0 W/m2 CLR
19:49 33.4 °C 14.4 °C 1012.4 hPa NNE 5.6 km/h 5.6 km/h 32 % 0.0 mm 223.0 W/m2 CLR
19:54 33.4 °C 14.9 °C 1012.4 hPa NNE 9.3 km/h 9.3 km/h 33 % 0.0 mm 206.0 W/m2 CLR
19:59 33.3 °C 14.9 °C 1012.4 hPa NE 7.4 km/h 7.4 km/h 33 % 0.0 mm 190.0 W/m2 CLR
20:04 33.3 °C 14.3 °C 1012.4 hPa NE 9.7 km/h 9.7 km/h 32 % 0.0 mm 172.0 W/m2 CLR
20:09 33.1 °C 15.2 °C 1012.8 hPa ENE 12.9 km/h 12.9 km/h 34 % 0.0 mm 155.0 W/m2 CLR
20:14 32.7 °C 18.8 °C 1012.8 hPa East 3.7 km/h 3.7 km/h 44 % 0.0 mm 141.0 W/m2 CLR
20:19 32.2 °C 19.4 °C 1012.8 hPa East 8.0 km/h 8.0 km/h 47 % 0.0 mm 123.0 W/m2 CLR
20:24 31.7 °C 19.7 °C 1012.8 hPa East 11.1 km/h 11.1 km/h 49 % 0.0 mm 104.0 W/m2 CLR
20:29 31.3 °C 19.7 °C 1012.8 hPa ESE 7.4 km/h 7.4 km/h 50 % 0.0 mm 91.0 W/m2 CLR
20:34 31.2 °C 19.9 °C 1012.8 hPa East 13.0 km/h 13.0 km/h 51 % 0.0 mm 79.0 W/m2 FEW
20:39 31.1 °C 19.7 °C 1012.8 hPa East 11.1 km/h 11.1 km/h 51 % 0.0 mm 67.0 W/m2 FEW
20:44 30.9 °C 19.6 °C 1012.8 hPa Calm     51 % 0.0 mm 54.0 W/m2 SCT
20:49 30.8 °C 19.5 °C 1012.8 hPa ESE 5.6 km/h 5.6 km/h 51 % 0.0 mm 42.0 W/m2 BKN
20:54 30.7 °C 20.1 °C 1013.1 hPa ESE 13.0 km/h 13.0 km/h 53 % 0.0 mm 33.0 W/m2 BKN
20:59 30.5 °C 20.4 °C 1013.1 hPa ESE 11.1 km/h 11.1 km/h 55 % 0.0 mm 25.0 W/m2 BKN
21:04 30.3 °C 20.2 °C 1013.1 hPa SE 11.3 km/h 11.3 km/h 55 % 0.0 mm 21.0 W/m2 BKN
21:09 30.1 °C 20.3 °C 1012.8 hPa SE 5.6 km/h 5.6 km/h 56 % 0.0 mm 18.0 W/m2 BKN
21:14 29.9 °C 20.2 °C 1013.1 hPa SE 8.0 km/h 8.0 km/h 56 % 0.0 mm 14.0 W/m2 BKN
21:19 29.8 °C 20.1 °C 1013.1 hPa SE 7.4 km/h 7.4 km/h 56 % 0.0 mm 12.0 W/m2 BKN
21:24 29.7 °C 20.3 °C 1013.1 hPa Calm     57 % 0.0 mm 9.0 W/m2 BKN
21:29 29.6 °C 20.2 °C 1013.1 hPa Calm     57 % 0.0 mm 5.0 W/m2 OVC
21:34 29.5 °C 20.4 °C 1013.1 hPa Calm     58 % 0.0 mm 0.0 W/m2 OVC
21:39 29.4 °C 20.0 °C 1013.1 hPa Calm     57 % 0.0 mm 0.0 W/m2 OVC
21:44 29.3 °C 19.9 °C 1013.1 hPa Calm     57 % 0.0 mm 0.0 W/m2 CLR
21:49 29.2 °C 19.8 °C 1013.1 hPa SE 5.6 km/h 5.6 km/h 57 % 0.0 mm 0.0 W/m2 CLR
21:54 29.1 °C 19.7 °C 1013.4 hPa Calm     57 % 0.0 mm 0.0 W/m2 CLR
21:59 29.1 °C 19.7 °C 1013.4 hPa Calm     57 % 0.0 mm 0.0 W/m2 CLR
22:04 29.0 °C 19.6 °C 1013.4 hPa ESE 1.6 km/h 1.6 km/h 57 % 0.0 mm 0.0 W/m2 CLR
22:09 28.9 °C 19.5 °C 1013.4 hPa Calm     57 % 0.0 mm 0.0 W/m2 CLR
22:14 28.8 °C 19.4 °C 1013.4 hPa Calm     57 % 0.0 mm 0.0 W/m2 CLR
22:19 28.7 °C 19.3 °C 1013.8 hPa Calm     57 % 0.0 mm 0.0 W/m2 CLR
22:24 28.7 °C 19.3 °C 1013.8 hPa Calm     57 % 0.0 mm 0.0 W/m2 CLR
22:29 28.6 °C 19.3 °C 1013.8 hPa Calm     57 % 0.0 mm 0.0 W/m2 CLR
22:34 28.6 °C 19.6 °C 1013.8 hPa Calm     58 % 0.0 mm 0.0 W/m2 CLR
22:39 28.4 °C 19.4 °C 1014.1 hPa Calm     58 % 0.0 mm 0.0 W/m2 CLR
22:44 28.3 °C 19.5 °C 1014.1 hPa Calm     59 % 0.0 mm 0.0 W/m2 CLR
22:49 28.1 °C 19.6 °C 1014.1 hPa Calm     60 % 0.0 mm 0.0 W/m2 CLR
22:54 27.8 °C 19.6 °C 1014.1 hPa Calm     61 % 0.0 mm 0.0 W/m2 CLR
22:59 27.5 °C 19.6 °C 1014.1 hPa Calm     62 % 0.0 mm 0.0 W/m2 CLR
23:04 27.2 °C 19.6 °C 1014.4 hPa Calm     63 % 0.0 mm 0.0 W/m2 CLR
23:09 27.1 °C 19.4 °C 1014.4 hPa Calm     63 % 0.0 mm 0.0 W/m2 CLR
23:14 26.9 °C 19.5 °C 1014.4 hPa Calm     64 % 0.0 mm 0.0 W/m2 CLR
23:19 26.8 °C 19.4 °C 1014.4 hPa Calm     64 % 0.0 mm 0.0 W/m2 CLR
23:24 26.7 °C 19.6 °C 1014.4 hPa Calm     65 % 0.0 mm 0.0 W/m2 CLR
23:29 26.6 °C 19.4 °C 1014.4 hPa Calm     65 % 0.0 mm 0.0 W/m2 CLR
23:34 26.4 °C 19.3 °C 1014.8 hPa Calm     65 % 0.0 mm 0.0 W/m2 CLR
23:35 26.4 °C 19.3 °C 1014.8 hPa Calm     65 % 0.0 mm 0.0 W/m2 CLR
23:40 26.3 °C 19.4 °C 1014.8 hPa Calm     66 % 0.0 mm 0.0 W/m2 CLR
23:45 26.3 °C 19.4 °C 1014.8 hPa Calm     66 % 0.0 mm 0.0 W/m2 CLR
23:50 26.1 °C 19.5 °C 1014.8 hPa Calm     67 % 0.0 mm 0.0 W/m2 CLR
23:55 25.9 °C 19.6 °C 1014.8 hPa Calm     68 % 0.0 mm 0.0 W/m2 CLR
Lo Temps de Massalio
Compliments of Weather Underground - 1.25 mb